Location: G�kdere
(37.0328°N, 30.9000°E)
Time: 04:09:44
(UTC+00:00)

Cosmos 1844 Rocket - Pass Details

Date: 03 March 2021
Orbit: 826 x 843 km, 71.0° (Epoch: 20 April)

Event Time Altitude Azimuth Distance (km) Brightness Sun altitude
Rises 16:43:11 0° 347° (NNW) 3,369 6.0 -10.9°
Reaches altitude 10° 16:45:54 10° 358° (N) 2,433 5.1 -11.4°
Maximum altitude 16:50:50 32° 60° (ENE) 1,400 3.4 -12.4°
Enters shadow 16:54:33 16° 115° (ESE) 2,051 4.2 -13.2°
